Vorticity
3 7 10 9 11 12 13 14 15 14 12 11 10 9 9 9 9 9 8 9 10 10 10 10 9 9 8 7 6 6 6 6 7 7 7 7 7 7 7 7 7 6 5 6 6 7 9 8 7 7 7 8 8 7 8 7 7 7 7 6 7 7 7 8 9 8 7 9 10 9 12 13 13 14 12 7 6 4 1 4 8 8 8 10 9
-4 6 11 8 5 4 6 7 9 13 14 13 14 14 13 12 11 12 11 11 10 11 10 10 10 10 10 9 8 8 8 7 7 7 7 7 6 6 6 5 5 6 6 6 6 6 6 7 7 7 6 7 7 8 8 8 8 8 7 7 6 7 8 8 8 8 8 10 12 9 9 10 10 13 15 13 12 10 6 6 9 8 6 11 13
-2 9 16 14 8 3 2 3 4 9 11 11 11 10 9 9 11 10 8 8 8 8 9 8 8 8 8 9 9 8 8 8 7 7 7 7 7 6 6 6 5 5 6 6 7 7 6 7 8 7 7 6 6 7 8 8 8 7 8 8 6 6 7 7 9 10 8 8 10 10 9 10 12 13 13 14 15 14 11 8 9 9 5 6 8
-2 7 15 16 11 4 1 1 3 5 5 5 7 6 5 6 7 5 2 3 5 7 8 8 9 10 10 10 11 11 10 10 10 10 10 9 10 9 8 8 7 6 7 6 6 7 7 8 8 7 7 9 8 7 7 8 8 8 8 8 7 7 7 6 8 9 9 8 8 9 8 9 13 14 13 15 16 16 14 12 10 8 5 5 5
-12 -0 13 15 9 3 2 3 5 5 3 5 9 8 5 3 4 3 2 2 4 7 10 11 10 10 11 11 12 13 13 14 14 14 14 13 13 12 11 10 10 9 9 8 8 8 7 8 10 10 9 9 10 10 8 7 7 7 8 9 8 8 7 8 8 8 10 11 11 9 7 9 11 10 10 13 14 14 14 14 14 11 9 7 5
-5 -6 1 13 13 7 8 8 6 6 4 6 10 7 1 2 5 4 3 2 5 10 10 10 9 8 10 11 12 14 14 15 16 17 18 18 17 17 16 14 13 11 10 11 11 10 9 8 8 10 11 11 11 11 11 10 8 8 7 8 9 9 9 9 9 9 9 10 12 13 8 7 8 7 6 8 9 10 11 12 13 15 14 12 10
11 -9 -11 7 13 7 10 12 8 5 5 7 10 6 1 4 7 4 2 2 5 10 9 7 8 9 10 11 10 11 12 11 13 13 14 16 16 17 18 18 17 15 13 12 12 13 13 11 10 10 11 12 12 12 12 12 11 10 9 7 8 9 9 9 8 9 10 8 9 13 13 10 5 -0 2 6 6 8 13 14 11 12 14 15 16
7 -4 -5 8 17 14 9 11 12 7 4 8 10 7 4 5 5 2 2 3 5 8 9 7 8 8 8 8 7 9 11 11 12 12 11 12 12 12 14 15 17 17 16 15 14 13 13 12 12 11 11 11 12 12 13 13 13 12 10 8 7 8 9 10 8 7 9 10 10 10 13 15 11 5 2 4 5 6 10 13 11 10 10 11 13
6 6 6 9 22 24 5 1 14 12 4 7 9 7 7 5 4 3 2 3 5 8 8 6 7 8 6 7 8 10 11 11 11 12 12 13 13 13 12 11 12 14 15 16 16 14 13 12 11 12 12 12 12 11 11 13 14 13 12 10 8 7 8 10 10 8 7 8 10 11 11 12 15 15 10 4 2 2 5 11 13 11 10 11 14
2 2 10 8 8 18 10 -1 5 8 7 12 11 7 7 4 3 3 2 3 5 6 7 5 6 6 5 7 10 7 3 3 4 6 8 9 12 13 14 14 12 11 12 13 14 14 14 13 12 11 12 12 12 12 11 12 13 13 13 13 11 9 7 8 10 10 9 7 7 9 11 11 13 14 14 11 6 2 5 8 9 10 11 12 14
8 1 10 6 0 21 27 4 -4 -0 2 8 14 13 9 6 5 4 1 3 6 5 5 4 5 5 4 7 9 2 -3 -1 -1 0 3 5 7 9 12 16 16 14 12 11 11 12 13 13 13 12 11 12 12 12 12 11 12 13 13 13 13 12 9 8 8 9 10 9 7 6 8 10 12 12 14 15 12 8 6 5 5 9 14 13 13
4 3 6 3 2 12 7 -8 -0 9 2 3 9 10 8 5 4 5 3 3 6 5 2 3 5 4 2 7 10 -0 -6 -3 -4 -4 -1 0 1 2 5 13 18 18 17 13 11 10 10 11 12 11 11 11 11 12 12 12 12 13 13 12 13 14 11 9 8 8 9 9 8 7 7 8 10 12 13 15 16 14 10 10 12 12 14 15 12
-7 -2 1 1 2 -0 -11 -13 -2 4 15 30 19 1 5 8 4 6 6 5 6 4 2 4 5 2 2 10 10 -1 -6 -2 0 1 2 2 1 -1 -1 8 17 19 18 17 16 14 12 11 11 11 11 10 9 9 10 11 12 12 13 12 12 14 13 11 9 8 9 9 8 7 8 8 8 9 11 12 14 14 9 8 9 10 13 16 12
2 1 -4 -4 2 4 -0 0 -3 -9 13 46 34 5 4 11 8 8 7 7 7 3 2 5 4 2 5 8 5 -1 -2 2 2 3 4 4 3 1 2 9 16 17 15 15 16 16 15 14 13 13 14 13 12 11 10 10 11 11 13 13 12 12 13 12 11 9 9 10 10 8 8 9 8 8 9 10 11 13 13 9 7 9 12 11 8
10 17 12 1 -1 4 2 3 5 -4 -1 25 35 22 17 16 11 9 9 7 6 3 2 5 4 3 4 3 -0 -0 2 3 2 2 2 2 -0 1 8 17 19 16 13 12 13 14 14 15 14 14 14 15 16 16 14 12 11 11 12 12 12 12 13 12 11 10 10 10 10 9 7 8 9 7 8 9 9 12 15 15 12 11 11 10 9
4 26 38 28 19 23 23 18 18 9 1 6 6 1 11 18 11 7 10 8 5 4 3 4 5 4 3 2 1 3 4 2 2 3 3 3 1 4 16 24 21 15 12 10 11 12 12 13 14 12 12 13 14 16 16 16 14 13 13 13 13 12 11 11 12 12 11 10 11 11 9 8 9 8 6 6 8 9 10 11 13 13 12 13 13
-10 1 18 24 21 17 15 16 14 8 11 15 2 -5 13 22 10 7 11 8 5 5 4 5 6 5 4 4 4 4 3 2 3 4 4 5 8 13 19 21 16 13 14 16 18 19 19 19 18 17 15 15 15 15 15 15 16 15 14 13 14 14 12 11 12 12 12 11 10 11 11 10 9 9 8 7 7 8 8 7 10 14 13 13 14
2 -10 -14 -0 12 6 -1 4 4 2 13 21 13 15 25 20 8 9 12 8 6 5 5 5 5 4 6 6 4 2 2 3 4 4 5 10 15 18 17 16 17 20 22 23 23 22 22 22 21 21 21 19 19 18 16 15 15 16 16 14 13 14 14 12 12 12 12 13 12 10 10 13 12 10 9 8 6 7 8 9 10 11 11 11 13
16 6 -11 -8 12 20 19 16 4 -7 -2 7 11 21 26 17 9 9 9 7 6 5 5 5 5 6 7 4 2 2 2 2 2 5 12 17 17 16 18 20 23 22 19 17 16 15 14 14 14 14 14 14 15 16 17 17 16 16 17 17 15 14 14 14 14 12 11 13 14 12 10 11 14 13 11 9 8 6 7 11 11 9 11 12 11
19 18 5 -3 3 13 23 34 29 9 0 10 20 16 7 4 7 8 6 6 6 5 6 6 6 7 4 1 2 3 1 2 6 12 16 16 15 18 21 21 17 13 10 10 11 12 14 15 16 16 15 13 12 11 12 14 17 18 19 19 19 17 14 13 14 13 12 12 13 13 12 11 13 15 13 10 9 7 6 9 11 10 11 12 10
13 16 19 16 8 1 -1 11 27 28 25 29 22 -5 -19 -5 9 10 5 4 5 7 7 6 6 4 2 2 3 3 5 9 13 15 15 16 19 21 17 12 8 7 10 15 20 23 25 23 22 21 20 20 19 17 15 14 14 17 19 21 23 22 18 15 14 14 13 12 11 12 12 11 12 15 15 13 11 9 8 7 9 11 10 10 11
17 10 14 16 12 8 -3 -17 -10 10 21 25 21 5 1 12 17 10 4 3 6 8 6 4 3 1 1 3 3 7 12 14 14 15 16 19 19 14 8 5 6 10 19 26 27 23 17 14 13 12 12 13 15 17 19 20 18 18 19 21 23 24 23 20 16 15 14 13 12 12 11 11 13 13 14 15 12 10 9 7 8 11 10 8 10
25 13 14 17 15 21 16 -8 -16 -3 4 7 15 17 15 19 18 9 2 4 8 8 4 2 1 1 2 5 8 12 13 12 14 17 19 17 12 7 6 8 12 20 26 23 14 9 9 12 16 18 18 17 16 15 16 17 18 19 20 21 21 23 24 23 20 17 16 14 13 13 11 10 11 13 15 15 14 13 11 8 8 10 10 9 8
22 21 25 21 15 24 28 8 -7 -2 4 8 17 21 21 24 20 7 1 6 9 5 2 1 2 4 6 8 10 12 12 15 19 17 13 10 7 7 12 16 21 24 19 9 7 15 23 26 27 30 33 33 32 29 25 22 21 20 20 20 20 19 21 22 21 18 16 16 16 15 13 10 9 11 14 14 13 13 13 10 8 9 9 9 8
28 30 24 8 2 14 25 15 4 8 15 14 14 21 28 26 14 3 3 7 5 1 2 3 3 7 9 8 10 14 16 18 15 10 8 8 9 14 20 22 21 17 11 13 22 29 30 26 23 25 27 27 27 27 28 28 27 25 23 22 21 20 20 21 20 18 16 17 18 17 17 14 10 9 11 14 14 12 13 13 10 9 12 12 9
13 17 13 6 2 -0 2 8 17 23 18 4 -0 14 28 25 13 6 3 2 1 1 3 4 5 7 7 9 14 18 18 13 8 6 8 12 17 22 23 20 16 14 16 24 29 27 20 13 11 14 15 13 14 17 18 19 20 22 23 23 22 22 21 21 21 18 16 17 19 20 19 16 13 11 9 11 13 12 13 14 11 10 12 14 11
17 16 12 9 5 -0 2 13 17 12 4 -2 3 17 24 19 12 7 3 2 3 2 2 4 6 7 9 14 19 18 13 7 6 8 13 19 24 23 19 16 16 17 21 26 25 23 20 16 16 17 15 11 10 9 8 10 13 16 20 23 25 25 23 22 22 21 18 16 16 19 19 16 14 13 11 11 12 13 12 12 12 12 12 14 14
20 16 10 9 11 13 16 14 7 5 9 15 21 21 15 7 6 6 5 4 1 2 5 7 8 11 15 18 18 13 7 5 8 15 21 25 24 18 15 17 20 23 24 23 21 21 23 23 23 20 15 11 8 5 8 14 20 25 27 28 30 29 26 23 21 20 22 21 19 18 19 18 15 14 13 12 12 13 13 11 11 12 12 16 18
19 18 14 17 21 20 18 16 16 20 23 20 17 12 7 4 5 6 5 2 1 5 8 9 12 16 18 16 13 9 5 6 13 21 25 24 20 16 19 24 26 26 23 18 16 17 18 18 18 14 12 11 7 8 18 29 35 36 34 31 30 30 30 29 25 21 19 22 24 22 18 17 17 17 16 15 12 14 15 12 10 12 13 17 17
17 16 13 15 17 17 20 22 21 19 14 9 7 6 5 6 6 5 3 3 6 10 11 13 17 17 14 12 10 8 8 13 19 25 26 22 18 19 25 26 22 17 13 10 9 11 12 14 17 15 10 7 6 13 29 38 33 26 23 22 24 25 26 30 33 31 25 23 27 28 24 19 16 16 20 20 16 15 16 13 10 12 14 17 15
11 11 14 20 20 18 18 14 10 9 8 7 7 5 4 5 4 4 6 9 13 16 15 16 16 13 11 10 8 8 14 20 24 27 24 19 20 24 24 20 14 13 15 15 17 18 13 9 11 14 12 9 9 18 31 30 18 12 16 22 26 28 27 29 34 38 37 33 30 31 31 27 18 16 24 26 19 16 17 14 11 12 15 16 13
18 15 15 15 10 7 7 5 7 9 8 6 6 5 5 7 8 10 13 15 16 16 14 14 13 11 11 10 8 12 20 25 28 26 19 17 24 25 19 14 15 17 18 19 25 34 31 19 13 16 18 16 14 20 25 18 9 11 20 26 29 28 25 26 31 33 34 35 32 29 30 29 22 20 27 28 20 16 16 13 12 15 16 13 10
15 10 8 6 3 5 8 9 9 8 5 5 7 7 9 12 13 14 16 16 17 16 14 13 12 10 10 10 12 19 25 27 26 21 15 20 28 25 16 14 13 12 12 10 14 28 35 28 22 25 25 19 16 20 20 12 7 13 22 27 27 24 19 22 30 30 24 24 26 25 24 24 21 22 27 26 19 16 15 14 13 14 13 10 8
9 7 6 7 6 8 8 7 5 5 6 8 10 12 15 16 15 16 17 18 17 13 11 11 11 9 10 12 15 21 25 24 22 18 15 22 30 27 17 6 -1 5 16 15 11 18 25 21 18 24 25 19 16 19 18 10 7 15 23 26 26 22 17 19 27 28 23 20 21 21 20 19 19 22 25 24 21 18 15 13 13 12 10 9 9
8 7 7 8 8 7 6 6 7 10 12 12 12 14 16 16 16 18 20 18 13 8 8 10 10 10 12 14 18 23 22 20 19 17 14 19 29 31 19 2 -3 11 26 21 11 14 21 18 14 18 22 19 16 18 17 10 7 12 20 26 27 22 16 17 24 25 23 21 22 23 22 20 19 21 23 23 20 17 13 12 12 11 10 11 11
7 7 7 6 6 6 7 8 10 13 14 14 14 14 15 16 18 19 19 16 10 6 8 11 10 10 13 17 20 22 20 18 17 16 15 21 29 29 20 10 11 21 25 19 14 18 24 22 17 18 22 18 11 12 16 12 7 9 15 22 29 28 20 16 21 25 24 21 21 22 22 20 19 19 19 18 15 14 14 14 14 12 11 11 11
7 8 7 7 9 12 13 13 12 12 13 13 13 14 14 15 17 18 16 12 8 8 11 11 9 9 13 17 20 21 19 18 16 13 15 21 25 23 19 17 17 18 18 17 18 21 25 26 22 21 24 16 5 9 20 17 6 6 12 17 24 31 28 19 18 24 27 23 19 19 20 19 17 15 15 15 16 16 15 14 13 13 12 12 12
8 8 8 11 13 13 14 14 12 11 12 12 11 12 12 13 15 15 12 10 10 12 12 8 6 9 13 18 22 21 19 17 14 11 16 23 24 22 19 15 13 17 20 21 18 16 20 27 27 23 20 13 4 10 24 23 9 3 10 15 19 26 30 24 19 21 26 25 20 17 17 17 17 17 18 18 18 17 14 12 13 12 11 11 12
9 10 11 12 12 11 11 12 11 10 10 9 9 10 11 12 13 11 11 12 13 11 9 6 5 9 13 18 22 23 21 17 14 15 20 25 26 21 15 12 16 23 24 21 18 13 12 22 29 22 11 8 6 8 19 28 18 4 4 11 17 22 27 27 23 20 20 22 21 19 18 19 18 17 16 15 14 14 12 11 12 11 9 10 10
9 10 9 8 9 9 8 8 8 8 8 8 9 10 11 12 14 13 13 13 11 7 6 6 5 7 12 18 23 25 22 17 16 18 19 22 25 21 12 12 20 23 20 18 19 16 12 17 27 21 7 4 7 5 9 20 21 11 6 10 17 23 26 27 27 23 16 15 18 17 16 18 17 12 10 11 12 10 9 8 9 9 8 9 11
8 8 7 6 7 7 6 7 8 9 10 10 9 9 12 14 16 16 14 12 10 7 6 6 5 7 12 18 23 26 21 16 17 18 15 19 25 22 15 12 7 2 5 13 18 19 18 20 26 24 10 3 5 5 4 11 18 17 12 8 13 23 27 25 27 29 21 15 17 17 13 15 15 12 12 13 11 8 8 8 8 9 9 10 13
8 7 5 5 6 5 4 6 7 8 10 10 8 10 13 15 15 15 13 12 12 8 5 6 7 9 12 17 24 27 21 15 15 15 13 18 25 26 24 17 -0 -10 4 20 20 19 21 23 28 30 19 6 4 3 0 6 15 19 14 7 8 19 24 19 21 30 29 23 21 20 15 13 12 10 10 10 7 6 7 6 5 6 8 9 11
8 7 4 5 6 4 3 6 8 9 10 9 7 10 12 11 11 12 11 11 12 9 6 7 9 9 11 16 23 26 20 14 14 13 12 18 26 31 30 20 4 2 20 28 20 17 20 20 26 33 26 13 7 1 -3 5 14 16 15 11 7 14 24 19 11 17 24 24 22 20 17 14 14 12 10 8 6 6 6 4 3 5 7 7 9
6 6 5 5 5 4 5 6 8 9 9 8 8 9 9 8 9 11 10 10 11 11 8 8 10 10 11 14 21 24 21 15 13 13 12 15 23 28 27 18 10 16 28 27 20 21 25 23 27 35 36 32 21 3 -3 8 14 10 12 14 7 8 22 23 9 6 15 18 15 14 14 13 11 10 7 4 5 7 5 2 1 3 4 4 7
5 5 5 5 5 7 6 6 6 8 9 8 7 7 7 6 7 8 9 10 11 12 11 11 12 11 10 12 18 23 21 16 15 15 13 14 19 24 22 17 16 22 27 24 20 19 16 15 18 23 33 44 38 14 4 15 17 5 5 14 11 6 14 17 8 6 13 13 9 12 15 13 9 8 7 6 7 6 4 3 5 4 3 4 6
4 5 5 5 7 7 6 5 7 8 8 7 6 6 7 6 5 6 9 10 10 12 12 12 12 11 9 10 16 22 23 21 18 16 13 13 17 21 20 15 17 23 24 21 19 13 4 5 13 16 19 34 43 29 10 5 3 -3 -1 9 12 10 10 11 8 7 10 10 8 11 14 13 10 10 9 7 6 6 5 6 8 5 4 6 8
5 5 5 5 6 6 6 6 7 7 7 7 6 6 8 8 6 5 5 5 6 8 9 9 11 11 9 9 12 18 23 25 22 19 17 13 13 19 20 15 17 23 22 17 19 17 3 -5 6 16 13 18 36 41 25 9 6 8 6 6 8 10 10 9 8 7 7 8 9 11 12 10 9 9 7 5 6 8 7 5 4 4 4 7 11
6 5 5 5 5 6 7 6 6 7 7 7 6 6 8 9 9 8 6 4 3 4 6 7 8 9 9 9 8 11 19 26 24 21 19 14 11 15 19 16 17 24 23 16 17 19 7 -6 0 14 14 10 21 37 37 30 27 22 10 1 3 9 10 11 12 10 8 8 8 10 11 10 8 7 7 6 5 5 5 5 6 6 7 12 21
6 6 7 6 6 6 6 6 7 9 8 7 7 8 9 9 10 11 10 8 5 4 5 7 8 8 9 9 8 7 12 21 25 24 21 17 14 14 16 16 17 23 24 20 17 18 13 4 4 11 14 11 12 18 25 30 34 32 23 15 9 4 3 9 12 10 9 12 12 9 8 9 7 6 6 7 8 10 11 11 10 11 16 23 26
6 6 6 6 6 6 7 7 8 9 8 7 9 10 9 10 10 11 12 12 10 7 7 7 8 9 8 8 8 7 7 13 22 26 24 20 17 14 13 15 18 22 24 25 24 21 19 15 8 4 6 11 14 12 11 15 21 26 31 34 28 20 20 25 23 15 9 9 8 6 7 9 11 12 13 13 13 15 15 12 11 18 24 20 8
6 6 7 6 6 6 7 8 9 9 8 8 9 10 10 10 9 10 12 13 11 9 8 8 8 9 9 8 8 9 7 7 14 22 25 23 19 15 12 13 16 19 21 23 24 23 23 22 17 8 3 6 10 12 12 14 15 14 16 21 24 24 27 34 36 34 28 23 21 24 25 23 20 20 19 15 14 16 17 16 19 26 22 3 -11
Height
5714 5714 5713 5712 5712 5711 5711 5711 5712 5712 5712 5713 5713 5714 5714 5715 5715 5716 5716 5716 5717 5717 5717 5718 5718 5718 5719 5719 5719 5720 5720 5720 5720 5721 5721 5721 5722 5722 5723 5724 5724 5724 5724 5725 5725 5726 5726 5726 5725 5725 5726 5728 5728 5728 5729 5728 5729 5729 5728 5728 5729 5731 5731 5731 5732 5736 5740 5740 5740 5743 5744 5744 5747 5750 5752 5755 5756 5757 5758 5761 5762 5762 5762 5763 5764
5711 5711 5710 5709 5709 5708 5707 5707 5708 5708 5708 5708 5708 5709 5709 5710 5710 5711 5711 5711 5712 5712 5712 5713 5713 5713 5713 5713 5714 5714 5714 5714 5714 5714 5715 5715 5715 5716 5716 5717 5717 5718 5718 5718 5718 5719 5720 5721 5720 5719 5720 5721 5721 5722 5722 5722 5722 5723 5723 5722 5723 5723 5724 5724 5724 5727 5733 5735 5733 5734 5735 5736 5739 5742 5744 5746 5748 5749 5751 5753 5755 5757 5756 5756 5758
5706 5706 5706 5706 5705 5704 5704 5704 5704 5704 5704 5704 5704 5704 5705 5705 5706 5706 5706 5706 5707 5707 5707 5707 5707 5707 5708 5708 5708 5708 5708 5708 5708 5708 5708 5709 5709 5709 5709 5710 5710 5711 5711 5711 5711 5712 5713 5714 5714 5714 5714 5714 5714 5714 5714 5715 5716 5716 5717 5717 5717 5717 5716 5716 5717 5719 5724 5727 5727 5727 5728 5729 5731 5734 5736 5738 5740 5741 5743 5746 5749 5751 5751 5750 5751
5700 5700 5700 5700 5700 5700 5699 5699 5699 5699 5699 5700 5700 5700 5700 5701 5701 5701 5701 5701 5702 5702 5702 5702 5702 5702 5702 5702 5702 5702 5702 5702 5702 5702 5702 5702 5702 5702 5702 5702 5703 5703 5704 5704 5704 5705 5705 5706 5706 5707 5708 5708 5708 5707 5707 5707 5708 5709 5710 5710 5710 5711 5710 5710 5710 5712 5715 5719 5720 5720 5721 5722 5723 5725 5727 5729 5732 5734 5737 5739 5741 5744 5745 5744 5745
5694 5694 5695 5695 5695 5695 5695 5694 5694 5694 5694 5695 5695 5695 5696 5696 5696 5696 5696 5696 5697 5697 5697 5697 5697 5697 5697 5697 5697 5696 5696 5696 5695 5695 5695 5695 5695 5695 5695 5695 5696 5696 5696 5696 5696 5697 5697 5698 5698 5698 5700 5701 5701 5700 5700 5700 5700 5701 5702 5702 5702 5703 5704 5704 5704 5704 5706 5709 5712 5713 5714 5716 5717 5718 5720 5722 5725 5727 5730 5732 5734 5736 5738 5739 5740
5689 5690 5690 5690 5690 5690 5690 5689 5689 5689 5689 5689 5689 5690 5690 5690 5691 5691 5691 5691 5692 5692 5692 5692 5692 5692 5691 5691 5691 5690 5690 5689 5689 5689 5688 5688 5688 5688 5688 5688 5688 5688 5688 5688 5688 5689 5689 5690 5690 5690 5691 5692 5693 5693 5693 5693 5693 5693 5694 5695 5695 5695 5696 5697 5698 5697 5698 5700 5704 5706 5707 5709 5710 5712 5714 5715 5717 5719 5722 5725 5727 5729 5731 5733 5735
5684 5685 5684 5685 5685 5685 5685 5685 5684 5683 5683 5683 5684 5684 5684 5685 5685 5686 5686 5686 5686 5687 5687 5687 5687 5686 5686 5686 5685 5685 5684 5683 5683 5682 5682 5681 5681 5681 5681 5681 5681 5681 5681 5681 5681 5681 5681 5681 5682 5682 5683 5683 5684 5685 5685 5686 5686 5686 5686 5687 5687 5688 5688 5690 5690 5691 5691 5692 5695 5697 5699 5701 5703 5705 5707 5707 5709 5712 5715 5718 5721 5723 5725 5726 5727
5678 5679 5679 5679 5679 5680 5680 5679 5679 5678 5678 5678 5678 5679 5679 5679 5680 5680 5681 5681 5681 5681 5681 5681 5681 5681 5681 5680 5680 5679 5679 5678 5677 5677 5676 5675 5674 5674 5674 5674 5674 5673 5673 5673 5673 5673 5673 5673 5673 5674 5674 5675 5675 5676 5677 5677 5678 5679 5679 5679 5680 5681 5681 5682 5682 5683 5684 5685 5687 5689 5691 5693 5696 5698 5699 5700 5702 5705 5708 5711 5713 5715 5717 5718 5719
5670 5672 5672 5672 5673 5674 5674 5673 5673 5673 5673 5672 5673 5674 5674 5674 5674 5675 5675 5675 5676 5676 5676 5676 5676 5676 5676 5675 5675 5674 5673 5672 5672 5671 5670 5669 5669 5668 5667 5667 5666 5666 5666 5666 5665 5665 5665 5665 5665 5665 5665 5666 5667 5667 5667 5668 5669 5671 5671 5671 5672 5673 5674 5675 5675 5675 5676 5678 5680 5681 5682 5685 5688 5690 5691 5692 5694 5696 5699 5701 5704 5707 5709 5711 5712
5662 5664 5666 5666 5667 5667 5667 5667 5667 5667 5667 5666 5667 5668 5669 5669 5669 5669 5669 5670 5670 5670 5671 5671 5671 5671 5670 5670 5670 5669 5668 5667 5666 5665 5664 5663 5663 5662 5661 5660 5659 5659 5659 5658 5658 5657 5657 5657 5657 5657 5657 5657 5658 5658 5658 5659 5660 5662 5663 5663 5663 5664 5666 5668 5668 5668 5668 5671 5673 5674 5674 5677 5679 5681 5682 5685 5687 5688 5690 5693 5696 5699 5701 5703 5706
5655 5657 5658 5660 5661 5661 5661 5662 5662 5661 5660 5661 5661 5662 5663 5664 5664 5664 5664 5664 5664 5665 5665 5665 5665 5665 5665 5665 5664 5663 5663 5661 5660 5659 5658 5656 5656 5655 5654 5653 5652 5651 5651 5651 5651 5650 5649 5649 5649 5649 5649 5649 5648 5649 5649 5650 5650 5652 5653 5655 5655 5656 5657 5659 5661 5661 5661 5663 5665 5667 5668 5670 5671 5672 5674 5677 5680 5682 5684 5686 5688 5690 5693 5696 5699
5649 5650 5651 5653 5654 5655 5655 5656 5656 5655 5655 5655 5655 5656 5657 5658 5658 5658 5658 5658 5658 5658 5659 5659 5659 5659 5659 5659 5659 5658 5657 5656 5654 5653 5652 5650 5649 5648 5647 5646 5645 5644 5643 5642 5642 5642 5641 5641 5640 5640 5640 5640 5639 5639 5640 5640 5641 5642 5643 5645 5646 5647 5648 5650 5653 5654 5654 5655 5657 5659 5661 5662 5664 5666 5667 5670 5673 5675 5677 5678 5679 5682 5686 5689 5692
5643 5644 5644 5645 5647 5648 5649 5649 5649 5649 5648 5648 5649 5650 5651 5651 5652 5652 5652 5652 5652 5652 5653 5653 5653 5653 5653 5653 5653 5652 5651 5650 5648 5647 5646 5644 5642 5640 5639 5638 5636 5635 5634 5633 5633 5632 5632 5632 5632 5632 5631 5631 5630 5630 5630 5630 5631 5632 5633 5634 5637 5639 5639 5641 5643 5645 5646 5647 5649 5652 5654 5654 5657 5660 5661 5662 5665 5667 5669 5671 5673 5675 5679 5682 5684
5636 5636 5636 5637 5639 5641 5642 5643 5643 5643 5642 5642 5643 5644 5645 5645 5646 5646 5647 5646 5646 5647 5647 5647 5647 5647 5647 5647 5647 5646 5645 5643 5642 5641 5639 5638 5635 5633 5631 5629 5628 5627 5625 5624 5623 5622 5622 5622 5622 5622 5622 5621 5621 5620 5620 5620 5621 5622 5623 5624 5627 5629 5630 5632 5633 5635 5637 5639 5641 5645 5647 5647 5649 5653 5654 5654 5657 5660 5663 5665 5666 5668 5671 5674 5676
5630 5630 5631 5631 5632 5634 5635 5636 5637 5637 5638 5638 5639 5639 5640 5640 5641 5641 5641 5641 5641 5641 5641 5641 5641 5641 5641 5641 5640 5640 5638 5636 5635 5634 5632 5630 5628 5626 5623 5621 5620 5618 5616 5615 5613 5613 5612 5612 5612 5612 5612 5612 5611 5610 5610 5610 5610 5611 5613 5614 5617 5619 5621 5623 5623 5624 5627 5630 5633 5636 5639 5640 5642 5645 5646 5647 5650 5653 5655 5658 5659 5661 5664 5666 5669
5624 5625 5625 5627 5627 5627 5629 5630 5630 5631 5632 5633 5634 5634 5635 5635 5636 5636 5636 5635 5635 5635 5635 5635 5635 5635 5635 5635 5634 5633 5632 5629 5628 5626 5624 5622 5620 5618 5615 5613 5611 5609 5608 5606 5604 5603 5602 5601 5601 5601 5602 5602 5601 5600 5600 5599 5599 5601 5602 5604 5606 5608 5611 5613 5613 5614 5617 5620 5623 5627 5631 5633 5635 5636 5638 5640 5643 5645 5647 5649 5652 5655 5658 5661 5664
5616 5617 5619 5621 5622 5623 5623 5623 5623 5623 5625 5627 5628 5629 5630 5630 5630 5630 5630 5629 5630 5629 5629 5629 5629 5629 5628 5628 5628 5626 5625 5622 5620 5618 5616 5613 5611 5609 5606 5604 5602 5600 5599 5597 5595 5594 5592 5591 5591 5591 5591 5591 5590 5590 5589 5588 5589 5590 5592 5594 5595 5598 5601 5603 5603 5605 5607 5609 5613 5618 5621 5624 5627 5629 5631 5633 5636 5637 5638 5641 5646 5650 5652 5655 5659
5607 5609 5611 5614 5615 5616 5616 5615 5615 5616 5618 5620 5622 5623 5624 5624 5624 5624 5624 5624 5624 5624 5623 5623 5623 5623 5622 5622 5621 5619 5617 5615 5612 5610 5607 5604 5602 5599 5597 5595 5593 5591 5589 5588 5586 5584 5583 5582 5581 5580 5580 5579 5578 5578 5578 5577 5578 5580 5581 5583 5584 5588 5591 5592 5593 5596 5598 5599 5603 5607 5611 5615 5618 5621 5623 5625 5628 5629 5630 5635 5640 5643 5646 5649 5653
5600 5602 5603 5606 5608 5608 5608 5608 5608 5610 5612 5614 5616 5617 5618 5618 5618 5618 5618 5619 5619 5618 5618 5617 5617 5616 5616 5615 5613 5612 5610 5607 5604 5601 5598 5595 5592 5590 5587 5585 5584 5582 5580 5579 5577 5576 5574 5573 5571 5569 5569 5568 5567 5566 5566 5566 5567 5569 5571 5572 5575 5578 5580 5581 5583 5586 5587 5589 5593 5596 5601 5605 5609 5612 5616 5617 5619 5622 5624 5628 5633 5636 5639 5643 5646
5592 5594 5596 5600 5602 5602 5601 5601 5602 5603 5606 5608 5610 5612 5612 5612 5613 5613 5613 5613 5613 5612 5612 5611 5611 5610 5609 5608 5606 5603 5601 5599 5596 5592 5589 5586 5583 5580 5577 5575 5574 5572 5571 5569 5568 5566 5564 5562 5561 5559 5557 5556 5555 5555 5555 5555 5556 5558 5560 5562 5565 5569 5570 5570 5573 5575 5577 5580 5583 5586 5591 5596 5600 5603 5607 5610 5611 5614 5618 5622 5625 5629 5633 5636 5638
5585 5588 5591 5594 5595 5595 5595 5595 5596 5598 5600 5603 5605 5606 5606 5606 5607 5607 5607 5607 5607 5606 5606 5606 5605 5604 5602 5600 5598 5595 5592 5590 5587 5583 5580 5577 5574 5570 5568 5566 5563 5562 5561 5559 5557 5556 5554 5552 5550 5548 5546 5545 5544 5543 5544 5544 5545 5547 5550 5552 5555 5557 5558 5560 5562 5564 5566 5570 5573 5576 5581 5587 5591 5595 5599 5602 5604 5607 5611 5615 5618 5622 5626 5630 5632
5578 5582 5585 5587 5587 5588 5588 5590 5592 5594 5595 5597 5599 5599 5599 5600 5600 5601 5601 5601 5601 5601 5600 5600 5599 5598 5595 5592 5590 5587 5583 5580 5577 5574 5571 5568 5565 5561 5559 5556 5554 5551 5550 5549 5547 5546 5544 5542 5540 5538 5536 5534 5533 5533 5534 5534 5535 5537 5539 5541 5543 5545 5547 5549 5552 5553 5556 5560 5563 5567 5573 5577 5582 5586 5590 5594 5597 5600 5604 5608 5611 5614 5619 5622 5624
5572 5575 5578 5580 5580 5582 5583 5585 5587 5589 5590 5592 5593 5592 5593 5593 5594 5595 5596 5596 5596 5596 5595 5594 5592 5590 5588 5585 5582 5579 5576 5572 5569 5565 5562 5559 5556 5553 5550 5547 5544 5541 5539 5539 5537 5536 5535 5533 5530 5528 5526 5524 5524 5524 5524 5524 5525 5527 5529 5530 5532 5534 5536 5538 5541 5543 5546 5550 5553 5558 5564 5569 5574 5579 5583 5586 5590 5593 5596 5601 5604 5606 5610 5613 5616
5565 5569 5572 5573 5574 5576 5579 5582 5583 5584 5585 5587 5587 5586 5587 5588 5589 5590 5591 5591 5591 5589 5588 5587 5585 5583 5580 5578 5575 5572 5568 5565 5561 5558 5554 5552 5548 5545 5542 5539 5535 5532 5530 5529 5528 5526 5525 5522 5520 5518 5516 5515 5515 5514 5514 5515 5516 5517 5519 5520 5521 5523 5525 5528 5532 5534 5536 5540 5544 5549 5556 5561 5566 5571 5575 5578 5581 5584 5588 5592 5596 5599 5602 5606 5610
5560 5564 5567 5568 5570 5573 5576 5578 5579 5580 5582 5582 5582 5583 5583 5583 5584 5585 5586 5585 5584 5583 5581 5579 5577 5575 5573 5570 5568 5565 5561 5558 5554 5551 5547 5544 5541 5537 5534 5530 5527 5523 5521 5519 5518 5517 5515 5513 5512 5510 5509 5507 5506 5506 5506 5507 5507 5507 5509 5510 5511 5512 5515 5519 5521 5523 5526 5531 5535 5541 5548 5553 5558 5563 5566 5568 5571 5575 5579 5584 5589 5593 5596 5600 5603
5557 5560 5563 5565 5566 5570 5573 5574 5575 5577 5578 5579 5579 5579 5579 5579 5579 5580 5580 5579 5578 5576 5574 5572 5570 5568 5565 5563 5561 5558 5555 5551 5547 5544 5540 5536 5533 5530 5526 5523 5519 5515 5513 5511 5510 5509 5507 5506 5505 5503 5502 5501 5500 5500 5500 5500 5500 5499 5500 5500 5502 5504 5506 5509 5511 5514 5517 5522 5527 5533 5539 5544 5549 5553 5557 5559 5563 5567 5572 5577 5582 5586 5589 5593 5596
5553 5557 5559 5561 5564 5567 5569 5570 5572 5574 5575 5575 5575 5575 5575 5574 5574 5574 5573 5573 5572 5570 5568 5565 5563 5561 5559 5556 5554 5551 5548 5544 5540 5537 5533 5529 5526 5523 5519 5515 5512 5508 5506 5504 5502 5501 5500 5499 5498 5497 5496 5495 5494 5494 5494 5493 5492 5492 5492 5492 5493 5494 5496 5499 5502 5505 5508 5513 5518 5524 5530 5534 5538 5543 5548 5552 5556 5561 5565 5570 5574 5579 5583 5586 5589
5550 5553 5555 5557 5560 5563 5565 5567 5569 5570 5570 5571 5571 5571 5570 5569 5569 5568 5567 5567 5566 5564 5561 5559 5556 5554 5552 5550 5547 5545 5541 5537 5533 5529 5525 5522 5519 5516 5513 5509 5505 5502 5499 5497 5496 5495 5494 5493 5492 5490 5489 5489 5488 5487 5487 5486 5485 5484 5483 5483 5484 5485 5487 5489 5492 5496 5500 5504 5509 5514 5520 5524 5528 5534 5540 5544 5548 5553 5559 5563 5567 5572 5577 5580 5583
5547 5549 5552 5555 5558 5560 5562 5564 5565 5565 5566 5567 5567 5566 5565 5564 5563 5562 5562 5561 5560 5558 5555 5552 5550 5548 5546 5543 5540 5537 5534 5530 5526 5522 5518 5515 5512 5509 5505 5502 5499 5496 5494 5492 5490 5489 5488 5486 5485 5484 5483 5483 5483 5481 5480 5479 5477 5477 5476 5476 5476 5477 5479 5481 5484 5488 5492 5496 5500 5505 5510 5515 5520 5526 5531 5536 5541 5546 5552 5556 5561 5565 5570 5573 5577
5545 5547 5550 5552 5554 5556 5558 5559 5560 5561 5562 5563 5562 5562 5561 5560 5559 5558 5557 5556 5554 5551 5549 5547 5544 5542 5540 5536 5533 5529 5526 5523 5519 5515 5512 5509 5506 5501 5498 5496 5494 5491 5489 5487 5485 5484 5483 5481 5480 5479 5478 5478 5477 5475 5473 5472 5472 5471 5471 5471 5471 5471 5472 5474 5477 5480 5483 5487 5492 5497 5502 5507 5513 5518 5523 5529 5534 5540 5545 5550 5555 5559 5563 5567 5571
5543 5545 5547 5549 5551 5553 5554 5556 5557 5558 5558 5558 5558 5557 5557 5555 5554 5553 5552 5550 5548 5546 5544 5541 5539 5536 5533 5530 5527 5523 5519 5515 5512 5508 5506 5503 5499 5495 5492 5490 5489 5487 5485 5483 5480 5479 5478 5476 5475 5474 5474 5473 5471 5470 5469 5468 5467 5467 5467 5466 5466 5466 5467 5468 5470 5472 5476 5480 5485 5490 5495 5500 5506 5512 5518 5523 5528 5533 5539 5544 5548 5553 5558 5562 5566
5540 5542 5544 5546 5548 5550 5551 5553 5554 5554 5554 5554 5554 5553 5552 5551 5549 5548 5547 5545 5543 5541 5539 5536 5534 5530 5527 5524 5520 5517 5513 5509 5505 5502 5500 5497 5493 5489 5487 5486 5484 5482 5480 5478 5476 5473 5472 5471 5471 5470 5469 5468 5467 5466 5465 5464 5464 5464 5463 5462 5462 5463 5463 5464 5465 5467 5470 5474 5479 5484 5489 5494 5500 5506 5511 5516 5521 5527 5533 5538 5543 5548 5553 5557 5561
5538 5540 5542 5544 5546 5547 5548 5550 5550 5551 5551 5551 5550 5549 5548 5546 5544 5543 5542 5540 5538 5536 5534 5531 5528 5525 5521 5517 5514 5510 5506 5502 5499 5497 5494 5491 5487 5484 5482 5481 5480 5478 5476 5474 5472 5469 5467 5466 5467 5466 5465 5464 5463 5462 5462 5461 5461 5461 5460 5459 5459 5460 5460 5461 5462 5464 5467 5470 5475 5479 5484 5489 5495 5500 5505 5510 5516 5522 5527 5533 5538 5543 5548 5552 5556
5536 5538 5540 5542 5543 5544 5546 5546 5547 5547 5547 5547 5546 5544 5543 5541 5540 5539 5537 5536 5534 5531 5528 5526 5523 5520 5516 5512 5508 5504 5500 5497 5494 5492 5490 5486 5482 5480 5478 5477 5476 5474 5472 5470 5468 5466 5464 5463 5463 5463 5462 5460 5460 5459 5459 5459 5459 5458 5457 5457 5457 5457 5458 5459 5460 5462 5464 5467 5471 5475 5480 5485 5490 5495 5501 5506 5512 5518 5523 5529 5534 5539 5543 5548 5552
5534 5536 5537 5539 5540 5542 5543 5543 5544 5544 5544 5543 5542 5540 5539 5538 5536 5534 5533 5532 5530 5527 5524 5521 5518 5515 5512 5507 5503 5499 5495 5492 5490 5487 5485 5482 5478 5476 5475 5473 5472 5470 5468 5466 5464 5462 5461 5460 5459 5459 5458 5457 5457 5457 5456 5456 5457 5456 5456 5455 5455 5456 5456 5457 5459 5460 5463 5466 5469 5473 5477 5482 5487 5492 5498 5503 5509 5515 5520 5525 5530 5535 5539 5544 5547
5533 5534 5535 5537 5538 5539 5540 5541 5541 5541 5540 5539 5538 5537 5535 5533 5531 5530 5529 5527 5525 5523 5520 5518 5515 5511 5507 5503 5498 5494 5490 5487 5485 5483 5481 5478 5475 5473 5471 5470 5468 5466 5464 5462 5460 5459 5457 5456 5456 5455 5455 5455 5455 5455 5454 5454 5455 5455 5454 5454 5454 5455 5456 5457 5458 5460 5462 5465 5468 5472 5476 5480 5484 5490 5495 5501 5506 5511 5517 5522 5527 5531 5536 5540 5543
5531 5532 5533 5535 5536 5537 5538 5538 5538 5537 5536 5535 5534 5533 5531 5529 5527 5526 5525 5524 5522 5520 5518 5515 5512 5508 5503 5499 5495 5491 5487 5484 5481 5479 5477 5474 5472 5470 5468 5466 5464 5462 5460 5459 5457 5456 5454 5453 5453 5452 5452 5453 5453 5453 5453 5453 5453 5453 5453 5453 5453 5454 5455 5456 5458 5460 5462 5465 5468 5471 5475 5479 5483 5488 5494 5499 5504 5509 5514 5519 5524 5529 5533 5536 5539
5529 5530 5532 5533 5534 5535 5535 5535 5534 5533 5532 5531 5530 5528 5526 5525 5524 5523 5522 5521 5519 5517 5515 5512 5509 5506 5501 5497 5493 5489 5485 5482 5479 5476 5474 5471 5469 5466 5465 5463 5461 5459 5457 5456 5454 5453 5452 5451 5450 5450 5451 5451 5451 5451 5451 5451 5452 5452 5452 5453 5453 5453 5454 5456 5458 5460 5462 5465 5468 5471 5475 5479 5483 5488 5493 5498 5503 5508 5513 5517 5522 5526 5529 5532 5535
5527 5529 5530 5531 5532 5532 5531 5531 5530 5529 5528 5527 5526 5525 5524 5523 5522 5521 5520 5519 5517 5515 5512 5509 5506 5503 5499 5495 5490 5486 5483 5480 5478 5475 5472 5469 5466 5464 5462 5460 5458 5457 5455 5453 5452 5450 5449 5449 5449 5449 5449 5450 5450 5450 5450 5450 5451 5452 5452 5452 5452 5453 5454 5455 5458 5460 5462 5465 5468 5472 5475 5479 5483 5487 5492 5497 5502 5507 5511 5516 5520 5523 5526 5529 5532
5526 5527 5528 5528 5528 5528 5527 5526 5525 5525 5525 5525 5524 5524 5522 5521 5520 5519 5518 5516 5515 5512 5510 5507 5503 5500 5496 5492 5488 5484 5480 5477 5475 5472 5470 5467 5464 5462 5460 5458 5457 5455 5453 5451 5450 5448 5447 5447 5447 5447 5448 5449 5449 5450 5450 5450 5450 5451 5452 5452 5452 5453 5453 5455 5457 5460 5462 5465 5469 5472 5476 5479 5483 5487 5492 5497 5501 5506 5510 5514 5517 5521 5524 5526 5529
5524 5525 5525 5525 5525 5524 5524 5523 5523 5524 5524 5524 5523 5522 5521 5520 5519 5517 5516 5514 5512 5510 5508 5504 5501 5497 5494 5489 5485 5481 5477 5474 5472 5469 5467 5464 5462 5460 5458 5457 5455 5453 5451 5449 5448 5446 5445 5445 5445 5445 5446 5447 5448 5449 5450 5450 5450 5451 5451 5452 5453 5453 5454 5455 5457 5460 5462 5466 5469 5472 5475 5479 5483 5487 5492 5496 5500 5504 5508 5512 5515 5519 5521 5523 5526
5521 5522 5522 5522 5522 5522 5522 5522 5523 5523 5523 5523 5522 5521 5520 5518 5517 5515 5514 5512 5510 5508 5506 5503 5499 5495 5491 5487 5483 5479 5475 5472 5469 5467 5464 5462 5459 5458 5456 5455 5454 5452 5450 5448 5446 5445 5444 5443 5443 5444 5444 5446 5447 5448 5449 5450 5450 5450 5451 5452 5453 5454 5455 5456 5458 5460 5463 5466 5470 5473 5475 5479 5482 5486 5491 5495 5499 5503 5506 5510 5513 5516 5519 5521 5523
5519 5519 5520 5520 5520 5520 5521 5521 5522 5522 5522 5521 5521 5520 5519 5517 5515 5514 5512 5510 5508 5506 5504 5501 5498 5494 5490 5486 5482 5478 5474 5470 5468 5465 5462 5460 5457 5455 5454 5453 5452 5451 5449 5446 5445 5444 5443 5442 5442 5442 5443 5444 5446 5447 5448 5449 5450 5450 5451 5452 5454 5455 5456 5458 5460 5462 5465 5467 5471 5474 5476 5479 5483 5486 5490 5494 5498 5501 5505 5508 5511 5514 5516 5518 5521
5518 5518 5518 5518 5518 5519 5520 5520 5520 5520 5520 5520 5519 5518 5517 5516 5514 5512 5511 5509 5507 5505 5502 5500 5496 5493 5488 5484 5480 5477 5473 5470 5467 5464 5461 5458 5456 5454 5453 5452 5451 5449 5447 5445 5444 5443 5442 5441 5441 5441 5441 5442 5444 5446 5447 5448 5450 5450 5451 5453 5454 5456 5458 5459 5461 5463 5466 5469 5471 5475 5478 5481 5484 5487 5490 5493 5497 5500 5503 5506 5509 5511 5514 5516 5518
5516 5516 5517 5517 5517 5517 5518 5518 5519 5519 5518 5518 5517 5517 5515 5514 5513 5511 5509 5507 5505 5503 5501 5498 5495 5492 5488 5484 5480 5476 5473 5470 5467 5463 5461 5458 5455 5453 5451 5450 5449 5448 5446 5445 5444 5443 5443 5442 5441 5440 5440 5441 5443 5444 5446 5448 5449 5450 5452 5453 5454 5456 5458 5460 5462 5464 5467 5469 5472 5475 5478 5481 5484 5487 5490 5493 5496 5498 5501 5504 5506 5509 5511 5513 5515
5514 5515 5515 5515 5515 5515 5516 5516 5517 5517 5517 5516 5516 5515 5514 5513 5511 5510 5508 5506 5504 5502 5499 5497 5494 5491 5488 5484 5480 5476 5473 5470 5467 5464 5461 5458 5455 5453 5451 5449 5448 5447 5446 5444 5444 5443 5443 5443 5442 5441 5440 5440 5442 5443 5445 5447 5448 5450 5452 5453 5454 5456 5458 5460 5462 5465 5467 5469 5472 5474 5477 5480 5483 5485 5488 5491 5494 5497 5499 5501 5504 5506 5508 5510 5512
5513 5513 5514 5514 5513 5514 5514 5514 5515 5515 5515 5514 5513 5513 5512 5511 5510 5509 5507 5505 5503 5501 5499 5496 5493 5490 5487 5484 5480 5477 5473 5470 5467 5465 5462 5459 5456 5453 5451 5449 5448 5446 5445 5445 5444 5443 5443 5443 5442 5441 5441 5441 5442 5443 5445 5446 5448 5449 5451 5453 5454 5456 5457 5460 5462 5464 5467 5469 5471 5474 5476 5479 5481 5484 5487 5489 5492 5494 5496 5499 5501 5503 5506 5508 5509
5511 5512 5512 5512 5512 5512 5512 5512 5513 5513 5513 5512 5511 5511 5510 5509 5508 5507 5506 5504 5502 5500 5498 5495 5493 5490 5487 5484 5481 5478 5474 5471 5468 5465 5463 5460 5457 5454 5452 5450 5448 5446 5445 5444 5444 5443 5443 5443 5442 5442 5442 5442 5442 5443 5444 5446 5447 5448 5450 5452 5454 5455 5457 5459 5461 5464 5466 5468 5471 5473 5476 5478 5481 5483 5486 5488 5490 5492 5494 5497 5499 5501 5504 5506 5508
5510 5510 5510 5510 5510 5510 5510 5511 5511 5511 5511 5511 5510 5509 5508 5507 5506 5505 5504 5503 5501 5499 5497 5495 5492 5490 5487 5484 5481 5478 5475 5472 5469 5466 5464 5461 5458 5456 5453 5451 5449 5447 5446 5445 5444 5444 5443 5443 5443 5443 5443 5443 5444 5444 5444 5445 5446 5448 5449 5451 5453 5455 5456 5458 5460 5463 5465 5467 5470 5472 5474 5477 5479 5482 5484 5486 5488 5490 5492 5495 5497 5499 5502 5504 5506
5507 5508 5508 5508 5508 5508 5508 5509 5509 5510 5509 5509 5508 5507 5506 5505 5504 5503 5502 5501 5500 5498 5497 5495 5492 5490 5487 5485 5482 5479 5476 5474 5470 5467 5465 5462 5460 5457 5455 5453 5451 5449 5447 5445 5444 5444 5443 5443 5443 5443 5444 5444 5445 5445 5446 5446 5447 5448 5449 5450 5452 5454 5456 5457 5459 5461 5464 5466 5469 5471 5473 5476 5478 5480 5482 5484 5486 5488 5491 5493 5496 5498 5500 5503 5505
5505 5506 5506 5506 5506 5506 5506 5507 5507 5507 5507 5507 5506 5505 5504 5503 5502 5501 5500 5499 5498 5497 5496 5494 5492 5490 5487 5485 5482 5480 5477 5474 5472 5469 5466 5463 5461 5459 5457 5454 5452 5450 5448 5447 5445 5444 5444 5443 5443 5444 5444 5445 5445 5446 5447 5448 5448 5449 5449 5451 5452 5454 5455 5457 5458 5460 5462 5465 5467 5469 5472 5474 5476 5478 5480 5482 5485 5487 5489 5492 5495 5497 5500 5502 5504